Location: Saint-Usage
(47.1052°N, 5.2587°E)
Time: 08:14:11
(UTC+02:00)

Nauka - Visible Passes

Search period start: 23 September 2021 00:00
Search period end: 03 October 2021 00:00
Orbit: 419 x 424 km, 51.6° (Epoch: 22 September)

Date Brightness Start Highest point End Pass type
(mag) Time Alt. Az. Time Alt. Az. Time Alt. Az.
23 Sep ? 20:10:26 10° W 20:13:47 60° NNW 20:17:08 10° ENE visible
23 Sep ? 21:47:51 10° WNW 21:50:41 35° NNW 21:50:41 35° NNW visible
24 Sep ? 21:00:49 10° WNW 21:04:00 37° N 21:05:31 23° NE visible
24 Sep ? 22:37:56 10° WNW 22:38:31 14° WNW 22:38:31 14° WNW visible
25 Sep ? 20:13:45 10° W 20:16:58 40° N 20:20:11 10° ENE visible
25 Sep ? 21:51:01 10° WNW 21:53:20 33° NNW 21:53:20 33° NNW visible
26 Sep ? 21:04:03 10° WNW 21:07:14 38° N 21:08:09 31° NE visible
26 Sep ? 22:40:57 10° WNW 22:41:09 11° WNW 22:41:09 11° WNW visible
27 Sep ? 20:17:02 10° WNW 20:20:12 36° N 20:22:58 12° ENE visible
27 Sep ? 21:54:02 10° WNW 21:55:58 31° NW 21:55:58 31° NW visible
28 Sep ? 21:07:06 10° WNW 21:10:25 51° NNE 21:10:47 48° NE visible
29 Sep ? 20:20:10 10° WNW 20:23:25 43° NNE 20:25:38 18° ENE visible
29 Sep ? 21:57:02 10° WNW 21:58:38 25° WNW 21:58:38 25° WNW visible
30 Sep ? 21:10:05 10° WNW 21:13:27 87° SSW 21:13:31 85° SSE visible
01 Oct ? 20:23:08 10° WNW 20:26:30 69° NNE 20:28:27 23° E visible
01 Oct ? 22:00:18 10° W 22:01:26 17° W 22:01:26 17° W visible
02 Oct ? 21:13:09 10° WNW 21:16:18 37° SW 21:16:26 37° SSW visible
